Regional Weather Roundup
Issued by NWS

Home | Current Version | Previous Version | Graphics & Text | Print | Product List | Glossary On
Versions: 1 2 3 4 5 6 7 8 9 10 11 12 13 14 15 16 17 18 19 20 21 22 23 24 25 26 27
000
ASUS45 KCYS 210710
RWRWY

WYOMING REGIONAL WEATHER ROUNDUP
NATIONAL WEATHER SERVICE CHEYENNE WY
100 AM MDT SAT APR 21 2018

NOTE:  "FAIR" INDICATES FEW OR NO CLOUDS BELOW 12,000 FEET
WITH NO SIGNIFICANT WEATHER AND/OR OBSTRUCTIONS TO VISIBILITY.

WYZ001-210800-
YELLOWSTONE NATIONAL PARK

CITY           SKY/WX    TMP DP  RH WIND       PRES   REMARKS
LK YELLOWSTONE   N/A     26  21  81 CALM      30.21R
W YELLOWSTONE  NOT AVBL

$$
WYZ002>013-054>058-071-098>099-210800-
NORTHERN WYOMING

CITY           SKY/WX    TMP DP  RH WIND       PRES   REMARKS
JACKSON        FAIR      38  25  59 N12       30.14R WCI  30
CODY           FAIR      45  32  60 W6        30.13F
GREYBULL       FAIR      45  36  70 E6        30.07R
WORLAND        FAIR      40  34  79 SW9       30.08R WCI  34
SHERIDAN       FAIR      38  32  79 S3        30.11S
BUFFALO        FAIR      37  33  85 SE12      30.14S WCI  29
GILLETTE       FAIR      38  34  85 S15       30.16R WCI  29
HULETT         PTSUNNY   39  32  75 S15       30.17R WCI  31
NEWCASTLE      RAIN      36  36 100 SE14G21   30.22R WCI  27

$$
WYZ014>020-022>026-101>103-210800-
CENTRAL WYOMING

CITY           SKY/WX    TMP DP  RH WIND       PRES   REMARKS
BIG PINEY      FAIR      31  24  75 NE5       30.15R WCI  26
PINEDALE       FAIR      32  25  74 CALM      30.16R
DUBOIS         FAIR      32  25  74 CALM      30.16S
LANDER         FAIR      37  30  75 W9        30.13S WCI  30
RIVERTON       MOCLDY    39  32  76 SE5       30.15S
CASPER         CLOUDY    35  35 100 NE5       30.15R WCI  31
DOUGLAS        CLOUDY    36  36 100 SE12      30.17R WCI  28

$$
WYZ021-027>030-104>119-210800-
SOUTHERN WYOMING

CITY           SKY/WX    TMP DP  RH WIND       PRES   REMARKS
EVANSTON       FAIR      43  26  51 N5        30.15R
KEMMERER       FAIR      34  32  93 N5        30.15S WCI  30
FORT BRIDGER   CLOUDY    37  36  96 NW3       30.18R
ROCK SPRINGS   CLOUDY    37  30  75 NW5       30.15R WCI  33
DIXON          CLOUDY    37  31  78 NE22G33   30.09R WCI  26
RAWLINS          N/A    N/A N/A N/A MISG      30.12R
SARATOGA       CLOUDY    34  32  93 N7        30.09R WCI  28
LARAMIE        FLURRIES  29  28  96 CALM      30.11R
CHEYENNE       LGT SNOW  32  32 100 SE13      30.14R FOG     WCI  22
TORRINGTON     LGT RAIN  36  36 100 SE14      30.19S FOG     WCI  27
PINE BLUFFS    CLOUDY    32  32 100 MISG      30.17R

$$




USA.gov is the U.S. government's official web portal to all federal, state and local government web resources and services.